Content
SEND FEEDBACK

Daily
Averages
Monthly
Summary
United States of America

HEART BUTTE - NORTH, MONTANA


Home > North America > United States > Montana
Elevation: 4460 feet     Latitude: 48 18N     Longitude: 112 50W

WEATHER
 
SELECT A DAY
Number of Records: 28,444;   Date Range: 9/27/12 - 9/18/14
 
SHARE

PRINT THIS DATA

[ ← Previous Day ]
WEATHER ALMANAC - JANUARY 31, 2013
[ Next Day → ]
[ °C ]   °F
Weather ElementAverageHighLow
Wind Speed9.4 mph17.3 mph (11:40 am)
Wind Gust35.7 mph (4:10 pm)
Weather ElementAverage
Wind DirectionSSW (208.7 °)

Weather ElementTotal
Precipitation---
Heating Degree Days65 (Base 65)
Averaged from 46 records on January 31, 2013
WEATHER CONDITIONS BREAKOUT
WIND DIRECTION BREAKOUT
WEATHER BY HOUR - JANUARY 31, 2013
[ °C ]   °F
Local TimeTemperatureDewpointHumidityBarometerVisibilityWind DirectionWind SpeedGust SpeedPrecipitationEventsConditions
12:40 AM0.0 °F0.0 °FWSW (250°)4.6 mph
1:10 AM0.0 °F0.0 °FWSW (240°)4.6 mph
1:40 AM0.0 °F0.0 °FWSW (240°)4.6 mph
2:10 AM0.0 °F0.0 °FWSW (240°)3.5 mph
2:40 AM0.0 °F0.0 °FWest (260°)2.3 mph
3:10 AM0.0 °F0.0 °FNNE (30°)2.3 mph
3:40 AM0.0 °F0.0 °FCalm
4:10 AM0.0 °F0.0 °FWest (280°)2.3 mph
4:40 AM0.0 °F0.0 °FWSW (240°)3.5 mph
5:10 AM0.0 °F0.0 °FWSW (250°)5.8 mph
5:40 AM0.0 °F0.0 °FWest (270°)3.5 mph
6:40 AM0.0 °F0.0 °FCalm
7:10 AM0.0 °F0.0 °FCalm
7:40 AM0.0 °F0.0 °FWNW (290°)2.3 mph
8:10 AM0.0 °F0.0 °FCalm
8:40 AM0.0 °F0.0 °FCalm
9:10 AM0.0 °F0.0 °FEast (90°)3.5 mph
9:40 AM0.0 °F0.0 °FWSW (240°)12.7 mph
10:10 AM0.0 °F0.0 °FWSW (240°)15.0 mph
10:40 AM0.0 °F0.0 °FSW (230°)15.0 mph
11:10 AM0.0 °F0.0 °FWSW (250°)15.0 mph
11:40 AM0.0 °F0.0 °FWSW (250°)17.3 mph
12:10 PM0.0 °F0.0 °FWSW (250°)16.1 mph31.1 mph
12:40 PM0.0 °F0.0 °FWSW (240°)15.0 mph31.1 mph
1:10 PM0.0 °F0.0 °FSW (220°)11.5 mph
1:40 PM0.0 °F0.0 °FSSW (200°)6.9 mph
2:10 PM0.0 °F0.0 °FSW (230°)8.1 mph
2:40 PM0.0 °F0.0 °FSW (230°)12.7 mph
3:10 PM0.0 °F0.0 °FWSW (250°)15.0 mph28.8 mph
3:40 PM0.0 °F0.0 °FWest (260°)17.3 mph33.4 mph
4:10 PM0.0 °F0.0 °FWSW (250°)17.3 mph35.7 mph
4:40 PM0.0 °F0.0 °FSW (230°)15.0 mph35.7 mph
5:10 PM0.0 °F0.0 °FSW (230°)11.5 mph
5:40 PM0.0 °F0.0 °FSW (220°)12.7 mph
6:10 PM0.0 °F0.0 °FSW (220°)9.2 mph
6:40 PM0.0 °F0.0 °FSW (230°)13.8 mph
7:10 PM0.0 °F0.0 °FWSW (240°)11.5 mph
7:40 PM0.0 °F0.0 °FWSW (240°)16.1 mph
8:10 PM0.0 °F0.0 °FWSW (240°)16.1 mph
8:40 PM0.0 °F0.0 °FSW (230°)16.1 mph
9:10 PM0.0 °F0.0 °FWSW (240°)17.3 mph
9:40 PM0.0 °F0.0 °FWest (260°)11.5 mph
10:10 PM0.0 °F0.0 °FWSW (250°)13.8 mph
10:40 PM0.0 °F0.0 °FWest (270°)8.1 mph
11:10 PM0.0 °F0.0 °FWSW (240°)11.5 mph
11:40 PM0.0 °F0.0 °FWSW (240°)10.4 mph
Hourly data recorded from K8S0, located miles away from Heart Butte - North, Montana







STORIES FROM OUR PARTNERS